Theta_e
304 304 305 305 306 306 306 307 307 307 308 306 306 312 304 302 299 308 309 311 308 300 292 294 290 286 290 297 295 297 297 297 299 298 299 296 299 297 295 295 294 294 293 292 291 293 289 291 289 291 291 291 293 296 296 298 296 294 289 294 294 296 287 285 286 289 290 289 290 289 290 291 288 288 289 286 284 286 284 283 283 282 283 282 283 280 283
302 302 303 303 303 304 305 306 306 306 306 303 305 304 300 302 302 300 309 311 308 298 287 286 287 288 291 293 293 298 296 297 295 295 297 296 295 295 294 295 298 293 296 293 290 294 286 291 291 290 293 290 298 297 296 296 292 292 288 288 292 286 286 287 283 283 283 286 287 286 285 285 284 283 286 289 288 287 287 286 286 283 285 284 282 277 282
301 301 301 302 302 302 303 304 305 306 306 305 304 299 304 304 306 304 304 308 306 295 297 293 289 289 289 289 289 291 293 296 297 297 296 299 297 295 293 297 296 294 296 294 294 295 292 287 292 292 289 291 296 295 296 295 291 295 295 294 295 288 285 284 280 278 276 275 277 278 281 279 283 285 285 287 286 287 285 283 284 281 284 285 282 281 287
300 301 301 301 301 301 301 302 304 305 306 305 302 299 300 297 289 300 299 302 301 301 303 299 295 291 289 288 289 292 290 295 297 298 296 299 298 298 296 295 297 295 294 292 292 292 295 291 287 288 288 290 291 295 295 294 293 293 294 293 292 285 285 285 283 281 280 283 284 286 288 285 281 281 283 285 287 287 287 286 284 281 284 283 284 285 285
302 301 300 300 300 300 300 301 302 304 306 306 302 299 299 300 293 295 289 298 297 296 299 297 298 293 295 287 291 289 290 292 294 299 292 297 297 296 296 295 293 292 293 290 290 292 290 292 291 290 289 290 291 294 294 293 293 294 292 293 290 286 284 286 286 285 285 287 287 289 289 285 286 285 285 286 286 287 286 284 282 287 285 280 286 288 286
301 302 303 301 300 300 300 300 300 302 304 304 301 292 297 289 295 299 300 292 288 290 291 297 295 297 296 292 295 292 291 291 289 295 297 297 299 294 294 296 295 295 293 292 287 289 290 290 288 291 291 290 291 291 292 291 294 293 290 292 289 285 283 286 286 285 287 288 287 289 287 287 286 286 286 285 287 286 285 286 287 287 283 281 286 288 286
300 300 301 302 302 300 299 299 299 300 301 303 298 290 295 296 297 299 302 290 295 294 295 297 295 294 295 292 294 291 292 291 293 292 291 295 293 297 289 293 295 295 296 292 289 290 286 286 290 290 290 290 290 289 289 292 293 292 290 289 289 288 283 285 286 284 285 286 286 287 286 286 286 286 286 287 286 286 286 286 287 287 286 287 288 288 287
300 300 300 300 301 302 301 299 299 299 300 299 295 294 290 289 292 290 296 295 294 294 293 293 293 290 293 288 290 293 292 291 294 295 294 290 293 298 292 293 295 295 293 294 290 291 292 291 288 290 291 289 288 289 290 288 289 290 289 289 288 288 283 288 285 283 283 285 286 286 286 285 284 285 286 286 287 287 287 286 287 287 286 288 288 286 286
299 299 300 300 300 301 301 301 300 299 299 293 292 292 296 296 297 295 289 286 290 292 293 292 290 288 290 289 290 291 291 291 294 294 298 294 292 295 293 295 295 296 294 294 293 296 295 294 294 295 294 289 292 290 287 294 288 287 287 289 286 288 285 288 285 281 280 285 284 284 285 285 284 284 285 285 285 283 285 284 287 285 284 286 286 284 285
299 299 299 299 300 300 300 301 301 301 300 293 292 288 296 295 297 296 292 284 290 288 290 290 290 285 290 291 290 290 290 294 294 290 296 297 298 297 296 296 294 292 293 292 294 297 298 297 298 299 299 299 297 297 296 295 292 288 288 289 287 287 286 284 284 280 280 285 285 284 284 283 280 281 284 286 286 287 287 288 289 288 289 285 283 284 290
299 299 299 299 299 300 300 300 300 300 299 292 291 291 293 291 289 289 290 283 286 287 286 286 286 289 291 292 290 293 291 292 292 287 288 296 296 299 298 295 292 291 292 295 301 301 300 300 300 300 298 297 297 296 296 296 296 293 288 286 287 287 286 285 286 280 281 285 284 285 280 274 276 287 290 289 286 286 285 285 287 289 290 287 290 290 293
299 299 299 300 300 300 300 300 300 300 299 297 296 293 294 296 293 291 285 280 282 287 285 283 285 288 288 289 289 288 288 288 289 292 288 291 293 294 293 293 293 287 295 295 297 298 300 300 299 298 297 296 295 294 294 294 294 295 295 289 287 286 286 285 286 282 280 285 284 279 273 275 286 291 291 291 290 290 288 288 289 290 291 291 290 291 292
299 299 299 299 300 300 300 300 300 300 299 298 296 291 296 298 292 288 286 282 279 283 281 283 287 287 287 287 286 286 288 289 290 290 290 289 289 290 292 291 290 291 294 293 294 293 289 287 289 289 291 292 291 291 291 292 293 295 295 295 290 287 286 285 284 285 284 282 280 274 274 286 287 290 291 292 291 290 289 286 289 290 291 291 289 291 293
300 299 299 299 299 299 300 300 299 299 299 298 294 293 295 296 289 287 286 281 279 283 284 283 284 283 285 285 285 285 287 287 289 290 287 290 289 288 290 293 292 292 292 293 291 290 286 287 284 286 285 287 287 286 289 292 292 292 292 294 294 290 288 287 282 286 279 280 281 279 286 286 285 286 287 289 286 286 285 282 285 291 292 292 291 291 293
299 299 299 299 299 299 299 299 299 299 299 299 295 294 294 294 294 290 290 286 278 281 282 276 281 283 284 283 284 282 283 284 284 284 288 289 287 288 291 290 292 290 292 290 286 288 285 285 281 281 283 282 278 281 288 285 290 293 293 293 294 293 288 288 284 281 286 280 278 279 279 276 281 290 291 294 294 293 292 288 285 292 293 294 292 291 292
299 299 299 299 299 299 299 299 299 299 299 299 296 293 294 295 294 293 288 284 282 275 280 283 285 284 282 282 283 281 280 280 281 283 283 284 286 287 288 290 289 290 289 288 287 286 285 281 279 280 277 280 284 283 280 286 283 289 293 292 292 292 292 289 286 282 284 281 278 277 276 279 287 288 292 294 294 293 291 286 281 288 292 293 293 292 293
299 299 298 298 298 299 299 299 299 299 299 299 294 293 291 296 293 291 287 285 282 277 285 286 285 284 282 280 282 281 283 281 282 277 277 280 283 284 285 286 287 287 286 284 283 283 281 281 282 281 282 284 280 280 285 284 281 282 288 290 288 287 288 287 284 281 283 282 279 277 282 282 288 290 291 294 294 294 287 278 278 290 292 294 294 292 292
298 298 298 298 298 298 298 298 299 299 298 299 295 292 292 295 295 293 289 284 281 280 284 286 283 280 279 281 280 284 285 283 282 283 280 281 281 281 284 282 280 285 287 280 283 281 279 279 276 277 277 283 285 284 278 283 282 282 283 283 284 285 285 286 281 282 282 282 280 283 283 288 290 291 292 292 293 289 281 276 285 289 290 292 294 293 293
298 298 298 298 298 298 298 298 299 299 298 298 295 293 292 295 295 294 288 284 282 277 284 288 288 285 286 288 283 285 284 283 282 278 277 277 279 283 281 282 284 276 283 279 282 278 276 276 282 280 277 279 284 278 279 274 277 276 274 277 281 283 284 284 285 281 281 282 280 280 284 289 293 293 293 290 286 280 279 288 292 290 289 290 289 288 288
298 298 298 298 298 298 298 298 298 298 299 299 296 290 292 295 295 294 287 282 283 280 284 284 286 283 287 283 281 280 280 281 282 279 277 274 281 283 279 274 283 280 277 279 275 280 277 274 277 277 274 276 277 280 275 275 280 275 275 277 275 278 281 278 281 283 284 283 280 279 276 284 285 288 289 289 283 284 288 289 291 292 289 289 289 289 289
298 298 297 297 298 298 298 298 298 298 298 298 296 291 289 293 294 295 294 289 283 279 281 288 288 286 287 286 286 285 282 279 280 278 279 279 282 280 269 272 276 277 273 276 271 273 276 272 274 273 277 276 274 277 269 273 273 278 280 278 279 281 275 277 279 281 276 277 277 277 282 284 288 285 280 282 284 287 292 290 288 291 290 288 288 288 288
297 297 298 298 298 298 298 298 298 298 298 299 297 292 288 292 294 294 294 293 285 282 284 288 290 288 289 290 289 289 287 286 287 286 282 279 282 280 278 278 277 277 277 280 275 274 276 274 276 273 272 273 276 271 273 270 267 274 281 281 273 286 277 279 275 280 277 273 277 282 285 286 287 286 284 284 285 287 291 290 289 289 289 289 287 287 288
298 298 298 298 298 297 297 297 297 298 297 297 296 290 287 291 292 295 293 286 288 288 289 288 288 288 291 291 292 292 291 291 290 289 287 282 278 281 278 277 276 282 281 281 276 275 275 274 271 274 272 273 272 271 273 273 271 276 273 280 280 282 282 283 281 278 283 283 285 287 284 282 282 284 284 283 284 289 290 288 287 287 288 288 287 288 288
297 297 297 298 297 297 297 298 298 297 297 298 296 290 289 291 292 291 289 288 284 281 283 286 283 280 282 283 288 291 291 290 290 290 291 288 278 278 282 282 282 280 277 280 283 277 276 277 274 276 270 273 276 271 270 270 273 277 276 275 279 280 282 281 279 278 275 270 280 279 279 281 282 282 283 284 287 288 287 285 286 286 286 287 287 287 287
297 297 297 297 297 297 297 297 298 297 297 297 296 295 293 291 292 291 285 279 280 279 274 278 281 285 288 289 290 289 290 291 292 291 290 289 285 280 278 282 284 279 278 281 283 280 280 274 274 274 270 276 277 268 275 271 270 278 271 274 275 273 281 276 275 275 274 273 278 279 281 282 282 282 282 285 286 285 285 285 286 286 286 286 286 287 286
297 297 296 296 296 296 297 297 296 296 296 296 296 290 288 289 292 291 288 288 285 282 275 275 280 288 288 287 286 288 291 291 290 290 290 289 289 287 285 285 283 285 283 283 281 277 275 274 274 273 271 271 280 272 272 276 275 277 273 271 276 277 279 270 274 275 276 279 279 280 280 280 281 283 286 286 283 283 283 284 284 284 284 285 285 286 285
296 295 296 296 296 296 297 297 296 296 296 296 294 293 291 291 293 290 287 286 281 276 278 275 280 281 283 283 288 289 290 289 289 289 288 289 288 288 286 284 282 282 281 280 280 278 277 276 275 272 274 272 277 274 275 273 274 271 271 274 278 276 273 277 276 271 272 273 276 278 272 272 278 279 281 282 282 280 278 279 279 280 281 283 283 284 286
296 295 296 296 295 296 296 296 296 296 296 297 294 292 291 289 291 292 292 289 284 277 277 277 277 278 286 280 287 288 288 289 288 288 287 287 286 285 284 283 283 281 280 278 274 275 274 273 271 276 276 274 274 271 276 277 276 273 273 275 278 274 274 275 271 271 271 276 277 277 278 277 279 280 279 279 279 278 276 276 277 279 281 283 282 280 280
296 296 296 295 296 296 296 295 296 296 296 294 290 289 289 291 292 293 292 291 289 284 281 281 283 281 275 279 287 284 288 288 287 287 286 286 286 285 284 283 282 281 281 280 278 277 275 275 278 274 272 277 274 270 273 268 269 268 272 276 277 277 278 277 276 276 276 276 272 273 274 274 276 278 276 277 278 276 275 276 278 279 279 279 278 278 278
295 295 295 295 296 296 296 296 295 295 296 292 289 286 282 285 291 291 293 292 290 285 278 276 273 277 283 281 279 283 285 287 287 287 285 284 284 284 284 283 282 284 281 279 278 273 276 276 277 278 279 282 274 270 271 270 269 271 277 277 278 278 278 278 278 275 272 271 271 272 272 274 276 275 275 276 275 274 274 275 275 275 275 276 276 276 277
295 295 295 295 295 295 295 295 295 295 294 288 285 278 276 275 284 292 294 292 291 284 280 280 276 281 277 280 282 281 283 285 285 284 284 284 284 284 285 284 283 283 278 279 278 277 278 274 274 276 279 280 279 271 270 270 268 271 275 277 277 277 277 275 274 272 270 269 270 271 273 274 274 273 273 273 272 273 273 273 273 274 273 273 272 272 272
295 295 295 295 295 295 295 295 295 295 292 287 283 282 283 283 290 291 293 293 290 284 279 275 275 275 275 279 281 283 284 285 285 285 284 285 282 285 283 284 280 283 282 278 278 277 275 277 276 276 276 280 279 272 272 270 268 269 276 276 278 274 271 271 272 272 269 269 268 269 271 271 272 269 269 271 271 272 271 270 271 271 271 270 269 270 270
294 294 294 295 295 295 295 295 296 295 289 291 296 295 294 292 293 294 293 291 287 283 283 277 273 276 274 274 279 277 283 282 282 282 279 285 280 282 280 283 282 281 285 280 275 271 276 276 277 274 276 278 274 273 270 269 271 275 276 277 272 268 269 270 271 271 267 267 268 266 266 267 268 269 269 269 269 269 269 269 269 268 266 265 265 267 268
294 294 294 294 294 295 294 295 295 295 295 288 282 285 290 293 292 293 290 286 283 283 282 275 272 272 271 278 271 276 284 277 277 280 275 282 282 280 277 278 280 277 278 276 277 277 276 276 273 274 275 273 276 271 267 271 275 275 275 269 266 266 266 267 269 267 266 265 265 266 266 266 267 268 267 267 266 268 268 267 266 264 263 264 264 265 265
294 294 293 293 294 294 295 294 289 288 284 285 286 288 291 294 293 293 290 284 276 276 277 277 276 270 269 270 268 274 281 278 275 279 275 276 283 278 279 274 276 273 272 281 275 276 272 273 275 270 268 271 269 268 269 272 273 270 267 267 265 263 265 265 266 265 264 264 263 263 264 265 266 264 264 264 265 266 265 264 264 263 262 262 262 262 263
293 293 293 294 294 293 289 289 286 284 281 282 283 291 294 295 294 291 290 289 284 278 276 275 276 271 272 267 267 272 281 275 277 277 277 278 275 279 277 275 270 275 277 275 269 273 270 276 272 267 270 267 267 270 271 270 269 267 265 263 263 262 262 262 262 262 262 263 262 262 263 265 264 263 263 263 264 263 263 262 262 262 261 260 261 261 261
293 293 294 292 289 286 283 283 288 285 282 287 291 294 294 291 284 287 286 284 284 285 278 275 273 272 273 271 275 276 277 269 278 274 275 273 272 275 274 272 269 275 272 269 270 269 273 278 271 267 268 266 269 270 267 266 265 264 263 263 262 263 262 262 262 262 260 260 261 264 265 263 262 262 262 262 262 262 261 260 260 260 259 259 259 259 259
293 293 286 285 283 279 278 281 282 287 292 293 291 285 282 284 277 279 281 279 283 283 279 277 272 274 276 274 269 278 276 271 277 271 272 275 272 270 274 271 270 273 263 268 270 277 272 270 268 267 267 272 267 264 264 263 263 264 262 262 261 262 262 261 261 260 258 258 260 261 259 260 260 261 261 260 260 260 260 260 260 260 260 259 259 259 258
290 286 284 284 280 277 278 279 290 293 289 287 287 280 277 279 277 274 274 278 278 274 278 276 273 276 274 273 274 282 277 272 272 272 267 275 270 264 272 264 271 270 264 266 268 277 265 267 267 267 266 269 267 263 263 263 262 263 261 261 261 261 261 261 261 260 259 258 259 259 259 258 258 259 260 259 259 260 260 260 259 259 259 258 258 258 258
284 281 281 280 279 280 287 289 292 288 286 280 277 277 271 278 274 270 278 273 272 275 275 270 278 277 277 274 273 273 281 274 269 267 269 270 277 266 271 268 270 266 259 262 265 274 264 261 265 264 264 269 267 261 262 260 260 261 260 260 260 260 260 260 260 261 261 261 261 260 260 261 260 259 259 258 258 257 257 257 258 258 257 257 258 258 257
284 283 281 278 281 284 285 286 286 284 280 277 275 275 272 269 273 273 271 268 269 270 276 273 275 273 277 278 277 272 279 279 276 275 272 266 276 275 269 263 273 263 262 261 270 269 267 264 263 263 266 267 260 259 259 258 258 259 259 259 259 259 259 259 259 259 259 258 259 259 259 259 258 258 258 258 257 257 257 256 256 257 257 257 257 257 258
285 283 283 284 284 283 284 283 281 278 277 278 272 268 271 271 272 269 271 265 266 269 270 273 268 273 271 277 275 275 273 278 276 276 272 266 275 270 266 269 270 264 261 267 269 267 266 259 261 263 264 257 257 256 257 255 256 256 256 257 258 258 257 257 257 257 258 257 257 257 257 257 256 257 257 257 256 256 256 256 256 256 256 257 257 257 257
291 288 285 282 281 280 282 275 278 276 270 270 268 266 269 265 268 266 267 272 274 270 270 276 274 279 278 277 274 276 273 279 274 272 270 266 276 272 266 266 265 261 265 271 267 263 262 261 261 264 257 255 255 254 255 255 256 256 256 257 257 257 257 256 256 256 256 256 256 256 256 256 255 256 256 256 256 255 256 256 256 256 256 256 256 257 257
287 284 280 278 275 276 278 267 277 271 269 270 267 263 265 262 265 266 263 266 268 267 273 270 272 273 268 275 272 274 275 276 279 272 270 272 269 265 266 262 264 268 271 265 264 261 263 265 265 258 255 256 255 255 255 255 254 255 255 256 256 256 256 256 256 255 255 256 256 256 256 255 255 256 256 256 256 255 255 255 256 256 256 256 256 256 257
280 278 277 275 272 275 272 266 274 269 265 267 271 266 266 263 266 267 266 267 269 270 274 275 274 272 270 272 272 274 276 269 277 266 264 269 264 266 263 261 266 267 261 260 261 262 261 262 257 254 255 253 256 254 255 254 255 254 254 254 255 255 255 254 254 254 254 254 254 255 254 255 255 254 255 255 256 256 255 255 255 256 256 256 256 256 257
277 275 273 269 267 272 269 266 267 263 268 271 268 269 268 268 267 265 261 261 267 270 269 269 270 272 270 272 268 268 272 271 268 266 269 268 262 260 266 268 266 259 260 261 257 258 262 261 256 254 254 255 254 254 254 254 254 254 254 252 253 254 254 253 253 253 254 254 254 254 254 254 254 254 254 255 255 255 255 255 256 256 257 256 256 256 257
277 277 273 273 268 270 270 264 265 267 267 267 265 265 266 264 263 263 262 263 264 266 267 268 269 271 269 269 270 270 270 270 263 267 266 261 261 265 271 261 259 260 256 256 256 259 261 254 254 255 254 254 254 253 253 254 254 253 253 253 253 253 253 253 253 253 253 254 254 254 254 254 254 254 255 255 255 255 255 256 257 257 257 257 257 258 257
272 276 273 266 265 268 265 267 267 264 264 264 265 266 266 266 265 262 262 262 264 267 265 267 268 271 269 272 269 266 267 268 262 265 266 263 267 260 260 259 258 261 261 258 261 259 254 253 254 254 254 253 253 253 253 253 253 253 253 253 253 252 253 252 253 253 253 253 253 253 253 253 254 254 254 254 254 255 256 256 257 257 257 257 257 257 256
277 273 269 266 268 269 267 268 267 266 263 263 266 267 265 264 261 259 261 262 262 260 262 264 267 269 267 271 266 267 263 267 261 264 268 264 260 258 259 255 257 256 261 259 255 251 253 253 253 253 253 253 253 253 253 253 253 252 252 252 252 252 253 253 253 253 253 253 253 253 253 253 254 254 255 255 254 255 257 257 257 257 258 257 257 256 256
274 272 272 269 267 268 267 268 267 265 264 263 264 262 263 261 258 257 260 259 261 260 266 270 272 269 269 268 263 265 263 266 263 266 262 260 260 261 261 257 259 258 257 249 250 252 253 253 253 252 252 252 253 252 252 252 253 253 253 253 253 253 253 253 253 253 253 253 253 252 253 254 254 255 255 255 256 256 257 257 257 257 257 257 257 257 256
276 270 265 265 265 264 265 263 264 264 265 264 262 260 261 261 261 259 261 260 261 264 266 265 268 267 266 266 265 261 263 267 262 262 262 261 264 261 259 260 257 248 248 252 252 253 252 252 252 251 251 251 252 252 252 252 252 252 252 252 252 253 253 253 253 252 252 253 253 255 254 254 255 256 256 257 256 256 256 257 257 257 257 257 257 257 256
272 268 263 262 262 261 263 262 260 257 256 257 258 258 261 259 259 258 261 261 261 263 264 266 263 264 264 263 264 264 265 264 262 261 259 260 257 257 258 253 245 247 250 249 250 251 251 251 250 251 251 251 252 252 252 252 252 252 252 252 252 252 252 252 252 252 252 253 253 254 255 256 256 256 256 256 256 256 255 255 256 257 257 257 257 257 257
Wind_Speed
10 10 12 12 12 13 12 13 13 14 15 6 5 2 3 5 5 3 13 14 15 9 6 7 7 6 5 4 8 4 6 4 2 5 2 6 5 5 6 9 9 9 10 10 11 11 10 11 14 13 9 8 7 11 20 17 14 8 4 2 4 0 1 3 8 9 4 4 1 4 2 2 3 4 5 5 12 14 12 10 4 7 3 7 10 15 15
10 11 11 11 12 12 11 12 11 11 12 5 5 2 3 4 2 2 6 13 10 7 8 6 10 9 7 8 9 7 6 5 7 11 11 6 3 7 4 5 12 10 7 5 11 9 9 7 18 14 11 12 13 9 10 9 4 2 1 5 8 4 2 6 11 8 5 10 9 4 1 2 1 4 5 6 5 4 6 4 1 10 9 12 14 18 8
10 10 11 11 12 12 11 11 10 9 10 9 4 4 2 3 3 4 7 11 9 11 8 11 9 12 14 13 17 13 7 9 19 18 16 11 10 5 9 14 5 6 6 10 13 13 15 6 6 9 5 9 4 11 14 6 6 1 5 7 2 2 5 5 8 11 12 12 12 13 9 3 3 1 5 6 4 8 6 11 8 14 7 15 15 14 12
8 9 10 10 11 11 12 11 10 9 8 8 4 4 4 4 6 4 5 10 10 10 6 11 10 10 11 12 14 14 16 7 15 18 19 15 11 13 6 1 7 12 10 12 12 13 11 12 2 5 7 10 7 10 12 8 5 7 12 8 6 1 1 5 7 8 10 8 8 6 9 9 5 4 6 8 10 8 7 6 10 13 12 15 13 14 17
11 11 9 9 9 10 11 11 11 9 7 6 1 2 4 4 5 4 4 4 11 11 11 12 10 13 10 10 5 17 19 14 10 12 11 10 18 12 12 7 8 5 11 14 14 16 14 14 16 16 16 10 11 8 8 9 11 14 7 2 0 1 5 13 17 18 17 15 19 17 15 17 17 16 16 11 7 7 9 10 14 11 14 20 10 16 18
12 11 13 11 8 8 9 9 10 10 9 8 2 4 4 8 4 6 3 6 5 10 11 14 14 13 11 13 7 13 12 11 14 8 19 12 11 8 5 18 19 18 18 11 12 9 16 13 16 12 15 11 11 12 10 12 13 15 6 5 5 4 11 14 15 21 22 20 21 20 19 19 19 17 15 17 16 12 14 16 19 20 17 20 13 18 22
11 11 10 12 12 9 8 8 8 9 9 8 3 4 4 6 5 5 3 3 2 8 6 9 15 16 17 9 12 15 17 19 14 9 3 8 8 16 13 13 19 23 22 18 15 12 11 12 12 12 12 17 12 10 5 12 13 12 9 4 4 5 10 10 15 15 15 16 20 21 25 23 23 21 21 22 22 22 18 21 22 20 20 20 22 24 27
10 10 11 11 11 12 11 9 8 7 9 6 5 6 5 5 5 4 6 5 6 7 5 2 3 8 9 11 10 12 16 19 16 11 11 11 11 11 22 20 19 18 20 21 19 19 21 21 18 12 16 12 6 11 13 8 4 9 11 5 5 10 8 15 15 13 18 21 22 22 24 23 25 26 23 21 22 25 29 25 19 20 22 22 25 25 24
12 11 11 11 10 11 11 11 10 7 5 3 5 6 5 3 4 3 5 7 5 6 7 8 9 9 6 10 8 11 15 17 15 18 12 16 15 9 18 18 22 18 19 21 23 22 23 23 26 24 18 16 10 11 2 14 9 6 7 5 4 15 11 9 10 12 17 17 24 26 26 25 26 25 24 23 27 30 26 18 19 21 24 25 25 18 18
12 12 12 11 11 10 10 10 11 12 8 2 4 6 4 4 3 4 3 6 3 9 6 10 8 11 7 10 10 8 10 13 11 16 12 17 17 17 17 14 15 15 18 21 22 23 23 23 23 21 20 20 18 17 12 12 13 7 10 9 10 10 8 9 10 17 17 15 20 23 22 19 20 22 23 34 35 27 19 21 24 23 22 21 18 22 21
13 12 12 12 12 11 11 10 9 9 6 4 3 4 4 4 4 4 3 7 4 9 8 10 12 8 10 10 13 11 14 14 11 15 6 5 9 10 15 16 16 16 18 12 12 13 13 13 14 11 13 16 18 15 17 19 14 8 5 2 4 9 13 13 9 11 12 13 18 12 14 18 19 14 30 32 31 28 28 27 28 33 25 20 22 25 22
14 13 13 13 12 12 11 11 11 9 6 5 4 4 4 2 2 2 2 7 7 8 9 11 11 7 10 12 11 13 14 15 15 12 17 10 15 15 16 15 12 12 8 17 18 19 17 12 11 12 14 15 17 18 20 21 17 14 12 12 9 12 13 13 8 10 11 10 11 13 22 22 9 17 23 26 30 28 30 32 32 30 27 28 26 26 24
15 15 14 14 14 13 13 12 11 11 9 4 4 5 2 1 3 2 2 5 7 6 9 10 10 15 16 15 15 15 15 16 17 19 19 16 14 13 7 8 10 9 14 14 16 16 15 14 15 13 17 14 15 17 21 22 23 23 18 19 17 15 14 9 8 9 8 8 11 16 20 1 7 16 17 17 21 26 27 30 27 28 28 27 26 23 21
16 16 15 15 15 14 13 13 12 11 12 8 5 5 4 3 3 4 3 3 7 7 7 9 9 14 15 13 11 12 11 14 13 12 14 8 11 8 10 7 9 9 10 10 9 9 11 4 11 9 11 7 10 11 17 23 27 25 27 21 20 21 16 12 13 11 15 12 15 24 11 17 5 3 10 13 17 15 19 23 27 27 25 23 23 23 23
16 16 15 16 15 14 14 14 13 13 13 11 5 6 5 5 3 3 3 4 8 9 7 11 6 7 6 7 8 11 9 10 10 11 10 8 9 6 4 7 8 10 9 6 6 3 8 7 11 9 8 8 9 9 4 8 7 25 28 26 25 22 22 15 17 11 16 18 18 15 15 18 15 16 14 20 23 23 24 19 26 8 14 16 22 23 26
16 16 15 15 15 15 14 14 14 14 14 13 6 5 6 4 4 4 4 4 5 9 9 9 5 5 5 5 5 8 9 9 10 10 10 9 4 7 7 5 7 8 7 5 3 5 5 11 11 11 12 9 6 7 3 2 4 5 23 26 23 23 23 22 20 16 13 20 17 15 16 15 5 15 17 19 18 19 15 12 24 5 15 16 22 24 24
17 17 16 16 15 15 15 15 15 15 14 12 6 6 6 6 6 5 5 4 7 11 6 3 4 5 6 6 4 6 6 6 4 7 6 5 8 9 8 4 5 7 8 9 4 4 8 12 11 13 12 6 13 11 12 5 6 4 5 17 25 23 18 17 19 18 15 19 17 18 7 10 7 10 11 16 15 12 5 18 16 7 20 20 22 23 20
19 18 17 17 16 16 15 15 15 16 16 15 9 7 6 5 6 4 6 6 7 9 10 9 6 6 8 7 7 4 3 4 6 4 6 5 6 6 2 5 8 6 6 8 4 8 8 8 12 12 17 10 11 10 19 10 12 3 2 6 10 14 15 17 24 21 21 20 18 12 9 3 6 11 10 11 13 7 14 23 13 2 5 9 12 16 15
19 18 18 18 17 16 16 16 17 16 16 16 9 6 8 7 6 6 5 6 7 7 5 3 5 6 2 2 3 4 2 3 4 6 6 8 4 2 4 7 3 9 3 6 4 8 8 10 7 9 10 7 4 5 6 4 7 10 13 11 7 8 9 9 15 19 17 17 18 17 12 4 4 9 13 5 3 9 15 8 15 15 15 16 15 16 17
19 19 18 18 18 18 18 17 17 16 16 16 10 7 6 6 7 10 9 8 7 10 9 11 7 11 5 8 8 6 3 4 5 6 6 9 4 7 7 7 2 2 5 3 7 4 9 8 4 3 5 7 3 7 8 5 3 2 10 8 8 7 7 6 8 11 13 14 14 12 12 3 17 21 6 3 2 6 9 11 9 11 11 14 14 12 12
19 19 19 19 19 19 18 18 18 17 17 17 12 7 8 7 6 8 8 7 8 9 11 10 8 12 9 11 11 10 7 9 5 6 6 7 2 2 2 4 3 3 3 3 8 5 4 8 8 6 2 7 7 8 8 11 19 10 6 8 8 5 10 7 4 6 7 6 5 1 5 8 11 9 6 8 8 13 11 11 10 10 10 11 11 11 11
20 20 20 19 19 18 18 18 19 19 18 16 14 7 8 6 5 6 7 7 9 10 8 3 2 3 3 5 5 4 8 10 9 7 4 5 2 6 5 4 4 2 2 3 4 3 4 4 3 7 9 8 4 12 12 16 15 15 6 6 9 4 4 1 9 7 4 6 11 14 15 7 6 4 4 11 14 15 6 6 7 10 10 9 7 9 11
21 19 19 18 19 19 19 19 19 18 20 18 13 6 9 5 5 7 6 7 8 7 5 8 7 8 7 10 11 11 8 5 6 6 7 7 6 6 8 6 6 4 3 3 6 6 6 6 10 7 10 6 10 14 13 12 13 8 14 4 8 10 13 7 7 7 7 9 13 15 9 14 20 19 16 13 16 10 3 10 9 7 8 8 9 9 10
21 20 19 19 20 20 19 19 19 19 18 18 11 6 7 7 6 3 4 8 9 7 7 8 6 9 11 14 14 11 10 13 14 13 9 9 9 7 6 5 4 3 2 4 3 4 5 5 6 4 10 7 6 10 10 9 7 6 10 12 4 3 9 9 6 9 15 14 4 12 17 22 23 23 22 15 4 2 5 8 8 10 11 10 6 8 10
22 21 22 21 20 20 20 19 18 19 19 18 14 11 6 5 4 6 7 8 5 6 7 5 12 14 11 8 7 9 13 12 10 12 10 10 12 10 10 9 5 5 6 5 2 3 3 6 6 6 10 6 7 14 10 13 13 8 13 9 10 11 3 16 11 15 12 16 17 19 15 18 16 14 12 8 6 9 11 12 9 9 10 11 12 11 11
23 23 23 23 21 20 19 19 20 19 19 19 14 5 7 9 7 7 8 7 6 5 8 9 10 4 6 9 11 11 7 6 7 10 12 12 12 13 12 6 7 5 7 5 4 7 6 6 5 6 8 8 6 7 7 6 9 8 12 14 10 14 13 12 4 15 16 15 15 13 11 12 11 9 4 8 14 16 15 13 14 13 14 14 13 10 11
24 24 23 22 21 21 20 20 20 20 20 18 11 6 7 7 7 9 8 7 6 7 9 10 9 3 2 10 8 5 4 7 7 9 7 8 10 9 8 9 10 8 7 6 5 5 4 6 6 9 9 8 5 8 7 9 9 10 11 11 7 9 11 13 13 12 13 11 10 13 17 17 17 14 11 14 15 15 17 18 16 14 14 14 14 14 11
23 22 22 21 22 21 20 21 21 20 20 18 11 8 7 7 7 8 9 9 12 11 5 3 2 2 1 3 7 9 6 6 8 8 9 10 10 10 10 10 10 8 7 7 6 6 5 7 9 6 4 4 6 8 9 10 7 9 10 10 7 12 13 11 11 10 13 15 18 12 9 13 13 17 15 14 12 15 18 17 16 14 13 11 14 17 19
22 22 22 22 22 22 22 21 22 21 20 16 5 5 6 9 8 9 10 9 9 9 10 8 6 5 8 4 2 2 5 8 8 8 8 9 10 10 10 11 11 10 9 8 8 7 6 8 6 5 5 4 4 6 6 8 7 11 8 9 9 9 9 13 16 18 18 9 10 9 6 9 13 12 14 12 12 13 14 14 14 15 17 17 15 14 16
22 22 22 22 22 22 23 22 23 21 19 8 6 5 6 5 9 10 12 11 9 4 5 7 8 4 2 3 5 7 6 7 10 11 11 9 10 10 10 10 10 10 9 8 7 7 8 6 5 6 7 6 6 3 6 6 10 10 8 11 12 13 10 10 8 8 7 2 3 6 10 13 9 10 10 6 7 10 11 13 13 15 15 16 18 18 16
22 23 22 23 23 22 23 23 23 22 19 3 4 4 4 6 5 10 15 12 11 6 2 4 8 4 4 2 4 9 10 10 10 11 12 12 11 10 9 8 8 8 9 8 7 10 6 6 5 6 5 9 8 4 8 9 10 8 8 11 12 14 9 7 5 5 5 9 11 10 6 8 9 12 12 13 17 17 17 15 17 14 15 16 16 17 17
22 22 22 22 23 22 22 23 23 20 9 8 11 9 5 1 1 7 13 10 8 6 7 6 6 3 3 2 3 4 8 9 8 6 7 7 9 9 8 8 8 8 9 9 9 6 7 10 9 9 8 10 10 6 6 9 11 11 9 11 11 3 6 5 8 4 6 8 12 16 15 14 10 7 10 14 15 15 15 17 14 14 14 13 14 14 15
21 23 23 22 22 22 22 22 22 16 8 11 17 18 9 5 3 2 7 7 6 5 3 5 5 2 2 3 1 3 1 4 7 5 7 7 7 5 8 8 7 6 7 7 3 5 4 5 6 8 10 6 4 6 8 10 11 11 13 13 3 3 5 5 6 2 6 6 5 2 9 12 14 14 11 13 16 16 15 14 15 16 17 17 16 15 15
21 22 22 20 20 20 21 21 21 21 15 4 3 7 9 12 7 8 7 5 3 2 3 3 2 5 4 1 1 4 6 5 5 8 6 5 5 6 5 3 6 5 5 9 7 6 3 3 6 9 2 4 5 5 9 10 12 15 9 3 3 5 3 5 3 1 5 4 3 5 10 12 13 13 14 13 14 14 12 12 12 14 17 15 14 14 14
21 20 20 19 20 20 20 16 6 5 7 7 6 4 8 19 17 14 13 5 4 3 4 4 2 3 3 2 3 4 5 5 7 7 7 4 7 7 3 4 4 6 4 4 4 7 5 5 3 3 8 3 3 8 7 11 10 2 3 6 6 7 8 9 3 1 7 5 6 8 9 10 10 12 13 14 12 10 12 14 12 13 15 15 13 11 12
18 18 17 17 17 13 7 4 4 3 4 6 5 6 15 18 20 12 12 8 6 4 5 3 4 7 6 7 5 2 1 3 3 2 4 2 2 3 3 3 5 7 2 2 4 5 6 5 3 7 4 5 8 7 8 3 4 1 1 3 4 4 2 5 10 14 13 11 11 12 10 7 9 14 14 14 13 13 12 13 15 11 12 16 15 15 15
16 15 12 9 3 2 4 5 3 6 6 4 5 8 9 6 2 2 5 3 4 0 4 2 4 5 6 4 0 2 4 5 5 5 2 4 5 1 3 3 7 2 1 3 5 6 10 6 4 6 6 9 10 3 1 2 1 1 2 2 2 4 4 5 8 10 15 15 10 6 5 10 12 9 10 11 13 14 16 17 14 13 17 20 19 18 19
13 8 1 2 2 2 3 4 4 4 8 13 14 5 1 2 2 2 3 5 4 5 3 2 6 3 2 2 5 4 3 5 2 4 2 3 1 3 2 2 3 2 6 6 7 6 2 2 4 8 7 7 1 4 2 2 4 3 4 2 3 3 6 6 7 8 10 15 17 15 17 18 19 14 7 14 16 17 16 13 13 12 12 14 15 17 19
6 1 3 3 2 4 3 2 4 14 7 2 1 1 1 1 2 3 3 3 2 4 3 6 8 7 6 6 6 3 6 3 2 2 4 3 3 4 0 1 3 2 3 0 5 8 3 4 4 4 8 5 4 2 4 3 3 2 4 2 5 5 6 7 6 6 7 8 11 11 8 12 16 24 22 17 16 15 14 13 14 14 12 15 15 16 19
2 3 4 4 6 3 1 2 6 5 1 3 1 2 2 2 4 3 2 2 1 2 3 5 5 7 9 12 8 5 3 2 5 6 5 2 1 4 2 1 3 3 3 4 5 3 3 3 2 3 4 7 4 5 5 5 2 3 3 6 4 7 6 8 9 8 10 12 12 13 12 13 15 17 19 19 18 20 24 21 15 13 15 17 19 19 20
4 2 1 3 1 2 4 1 2 1 1 2 1 1 1 1 1 1 1 1 1 2 2 3 3 3 4 5 4 6 4 6 3 1 1 3 2 1 2 3 1 2 2 3 3 1 2 2 3 5 8 3 5 4 5 5 3 4 4 5 6 6 7 8 9 9 10 12 11 11 11 12 13 15 16 18 18 18 19 20 22 20 19 19 20 20 17
6 4 2 3 2 1 3 1 1 2 1 1 2 2 2 1 1 1 1 3 4 1 2 3 2 6 4 7 5 2 0 2 2 2 1 2 2 4 2 1 0 2 4 5 1 1 1 2 2 5 1 5 2 3 4 4 5 6 7 6 7 6 8 10 11 10 8 12 13 13 12 12 14 14 14 16 18 19 19 20 23 23 19 18 18 18 18
9 9 4 2 1 1 1 1 3 1 3 3 2 2 1 2 2 4 2 1 1 1 2 2 0 2 1 2 1 1 3 1 2 1 1 2 0 2 0 1 0 3 4 0 0 1 3 4 4 6 5 4 4 3 5 4 6 6 7 7 7 8 10 10 11 12 11 11 13 14 14 14 14 14 13 16 19 24 22 18 19 21 21 19 19 18 18
5 2 2 1 1 2 2 5 2 2 2 1 3 3 2 1 2 2 1 2 2 1 2 5 4 6 2 1 3 1 1 0 1 1 0 1 0 1 0 2 4 3 1 1 1 4 6 4 3 2 1 1 2 5 6 7 8 9 8 6 6 9 9 11 11 13 13 11 11 12 13 13 15 15 13 14 15 21 24 22 17 17 20 20 19 18 17
4 2 2 2 2 2 3 3 1 2 4 4 4 3 3 6 6 7 5 1 2 0 4 6 4 2 1 0 2 1 1 1 1 3 2 2 1 1 1 3 2 0 1 3 2 2 0 4 3 1 4 4 7 7 6 8 8 10 14 13 10 8 10 12 13 12 13 12 14 14 14 13 14 16 15 15 15 14 17 21 19 18 17 18 18 18 17
3 4 3 2 3 2 2 1 1 1 2 2 2 2 3 2 1 1 1 1 2 4 5 3 4 2 1 1 2 2 1 2 1 2 1 0 2 3 3 1 1 0 2 1 3 5 8 2 3 2 3 5 7 8 8 8 8 8 9 15 16 14 12 13 14 14 14 14 14 13 15 14 14 16 17 15 14 15 15 17 17 18 18 18 18 18 17
2 1 0 0 1 1 2 2 3 2 1 2 4 3 3 3 5 4 1 2 2 2 2 3 3 3 1 2 1 1 1 0 1 1 2 0 2 1 0 1 1 2 2 4 4 5 2 2 3 4 5 8 9 8 8 9 8 9 11 11 13 15 14 15 15 15 16 15 16 16 15 15 16 16 16 17 15 14 16 17 17 17 17 18 16 15 15
2 1 2 2 3 2 5 3 2 3 4 4 2 2 2 4 5 3 3 2 4 2 1 0 0 0 0 1 2 2 1 1 1 2 2 1 0 0 1 1 2 2 2 3 8 0 2 1 5 6 7 6 8 11 11 11 9 10 11 13 14 15 15 16 17 16 15 17 17 16 16 16 16 16 17 17 18 16 15 15 15 16 16 14 12 14 14
2 2 2 1 0 0 1 1 4 5 2 2 5 5 4 4 3 0 4 1 1 1 1 2 1 2 2 1 1 1 2 1 2 2 1 1 1 3 2 2 2 4 2 0 1 2 3 6 6 7 8 8 8 10 11 10 12 13 13 14 15 15 15 15 16 16 17 16 15 16 17 16 16 16 16 15 16 16 15 15 16 15 12 12 13 13 13
1 0 0 0 1 1 1 1 4 4 3 2 2 3 2 4 3 2 3 4 5 3 3 1 1 1 2 1 1 1 2 1 2 0 1 2 2 1 1 5 5 4 2 2 2 4 6 7 8 9 8 9 11 11 12 13 12 13 13 13 13 13 13 15 17 16 16 15 16 17 18 17 15 15 16 17 17 16 16 15 13 11 11 11 11 11 11
1 4 3 4 3 1 1 1 1 4 4 2 4 3 3 3 3 3 5 4 5 2 0 2 1 2 1 1 1 1 2 1 0 2 4 3 1 2 4 9 3 1 4 3 4 7 8 7 7 9 12 12 11 12 12 13 14 14 14 14 14 13 14 14 15 16 16 15 15 17 17 16 15 17 16 15 15 15 14 13 11 10 11 11 9 8 8
2 3 3 3 5 5 3 3 4 5 3 3 3 3 3 3 3 3 5 4 3 1 0 0 1 1 1 4 2 0 1 1 2 1 2 2 1 1 3 1 1 3 5 8 9 6 6 6 6 9 11 13 15 14 14 13 14 14 13 14 14 14 15 14 14 14 15 15 16 15 16 17 17 16 15 15 15 13 12 11 11 11 11 9 8 9 7
Wind_Direction
352 356 359 359 3 7 12 14 16 21 15 8 341 271 231 197 243 48 146 162 155 138 197 185 177 209 238 322 294 268 266 280 256 276 185 256 222 255 237 243 258 241 243 264 276 280 276 284 276 289 297 298 300 325 320 326 324 345 293 320 309 213 148 263 263 288 322 323 46 30 14 215 309 290 242 200 217 212 222 234 238 241 191 218 240 239 256
346 351 352 351 352 353 2 9 15 18 29 17 315 272 256 250 205 131 190 177 184 153 188 200 218 229 259 246 253 234 240 226 252 250 242 225 187 224 232 273 224 248 234 238 252 250 267 242 254 266 282 275 298 314 346 2 339 12 325 43 312 339 299 230 266 262 282 289 299 261 6 26 261 228 240 239 262 265 258 281 299 266 224 249 247 252 269
338 341 346 350 353 352 353 1 9 17 21 26 338 300 272 270 263 184 180 194 205 208 193 220 205 212 223 218 237 240 243 219 231 237 241 219 222 237 233 228 211 232 214 238 235 241 244 276 272 279 273 274 295 297 281 314 300 282 106 106 359 298 318 320 263 250 252 252 240 253 279 252 245 277 278 283 260 254 276 258 250 256 243 249 254 271 269
326 332 335 337 341 345 348 351 359 5 28 40 21 322 285 208 241 174 196 189 210 239 215 236 214 218 219 237 236 233 247 236 232 232 252 241 240 223 243 135 204 228 235 248 244 243 235 242 220 217 229 251 264 236 263 276 261 287 327 346 53 169 88 277 276 275 273 268 282 299 305 294 264 255 239 244 253 252 244 263 257 256 265 253 252 264 277
329 325 321 329 332 332 336 338 345 354 7 22 24 268 255 310 257 178 216 194 223 219 204 224 208 226 184 239 130 227 234 242 258 198 259 205 235 239 229 227 223 204 217 231 241 235 245 233 241 242 251 227 244 243 249 267 277 286 303 307 330 156 260 249 263 264 263 265 271 281 283 275 276 279 278 273 260 254 251 242 254 256 267 260 257 268 270
312 330 339 328 322 329 331 327 331 339 0 351 303 258 246 239 224 239 244 212 197 217 237 221 224 230 215 235 215 239 242 219 238 201 229 234 215 235 186 228 225 231 231 220 235 211 236 227 239 236 239 258 247 260 236 243 241 249 239 151 211 201 234 241 243 247 248 254 264 268 271 268 266 264 268 277 280 264 252 249 249 247 246 260 257 252 257
304 310 325 334 330 319 318 325 323 322 338 344 268 254 252 266 344 290 35 295 302 224 249 230 236 236 226 244 227 243 242 247 227 223 243 214 223 214 246 220 221 227 230 227 241 228 255 239 230 229 241 231 245 256 268 240 228 232 239 208 187 228 222 229 225 240 241 243 242 245 255 262 264 259 258 261 264 268 262 256 251 249 254 256 255 252 253
298 303 306 309 319 325 321 318 319 315 323 318 275 245 242 242 244 284 326 312 291 305 308 263 247 259 233 241 220 241 243 251 256 247 239 247 232 205 235 236 232 224 225 227 233 227 226 237 249 232 228 245 211 244 225 259 228 204 223 220 191 202 213 198 226 235 239 235 240 239 242 243 255 259 260 257 258 256 250 250 259 270 264 259 256 255 260
295 298 299 299 302 303 307 312 315 310 313 306 281 259 240 328 337 340 306 301 289 274 258 261 260 260 228 252 241 248 248 253 247 254 240 248 255 233 242 239 246 240 238 234 236 232 235 237 238 243 238 245 196 218 200 202 230 184 221 191 210 189 241 193 221 236 240 229 237 238 239 238 242 251 260 259 250 248 249 251 246 244 251 253 258 261 258
290 291 288 289 288 292 292 295 311 321 313 254 280 281 295 302 315 338 328 280 275 284 294 287 289 253 242 247 250 250 256 259 265 274 252 254 252 254 260 267 269 260 258 255 246 245 244 244 246 253 254 249 247 234 234 191 211 209 216 190 195 188 207 214 218 235 238 226 230 234 237 239 241 233 238 246 248 246 252 246 249 246 243 250 251 248 247
281 281 280 281 280 280 285 286 286 295 310 269 258 271 296 309 331 2 350 286 260 264 279 269 265 286 297 272 284 270 277 272 263 259 268 266 266 266 266 267 264 269 262 283 315 305 300 296 297 299 288 289 283 276 267 253 240 236 199 195 213 190 207 224 203 242 242 225 238 233 233 223 224 195 220 228 240 242 241 240 238 241 233 235 232 245 247
279 278 278 278 278 277 275 276 279 279 281 294 286 274 272 308 264 212 256 255 276 279 263 258 261 319 287 305 301 305 303 304 302 302 298 302 310 324 320 311 295 270 5 348 337 327 311 295 277 266 262 253 256 260 263 264 253 238 226 223 227 215 212 230 205 241 242 233 239 240 232 237 215 207 218 227 238 242 242 243 238 242 244 246 247 247 246
274 271 273 272 271 270 269 269 268 272 269 261 273 272 257 165 224 226 248 265 275 264 270 267 269 272 275 282 293 291 295 292 289 288 285 288 293 296 291 293 286 320 347 335 327 321 314 299 290 275 268 266 254 244 241 243 243 236 229 218 224 224 215 224 229 230 251 229 218 241 239 219 225 217 215 219 233 235 244 253 250 249 246 247 251 252 254
273 273 269 268 268 268 267 265 263 260 260 255 255 252 250 193 202 208 207 235 251 246 268 292 274 272 275 282 288 299 307 301 300 298 290 298 297 311 312 333 340 329 322 321 319 320 292 286 279 278 262 247 257 248 235 234 234 231 232 224 215 225 231 219 242 196 235 230 225 241 270 270 160 151 205 200 222 221 224 248 244 232 239 243 252 252 251
271 271 269 269 267 265 264 264 262 256 255 253 252 259 256 243 214 217 230 227 264 273 265 255 252 285 341 321 312 303 298 299 300 285 285 294 282 280 342 340 335 338 316 327 304 287 272 300 274 274 265 240 250 252 187 242 227 225 230 224 220 216 224 215 232 218 218 244 247 250 241 242 234 216 209 210 226 230 235 240 264 207 237 226 239 241 244
271 270 270 266 264 264 262 262 260 257 253 254 251 254 256 246 235 214 224 220 261 264 239 250 269 282 297 297 315 299 295 295 279 286 289 280 288 6 345 354 343 329 358 333 311 276 260 269 272 269 268 274 278 296 246 279 295 233 223 227 226 224 221 226 224 236 217 233 236 236 241 247 186 225 220 223 226 238 247 259 263 170 231 229 241 244 243
269 268 269 269 267 264 262 259 259 255 253 247 244 235 241 222 223 224 225 224 210 244 288 284 280 289 299 276 236 239 247 262 327 326 308 325 350 331 319 332 318 359 346 344 288 256 257 258 268 275 276 279 280 269 285 269 265 274 239 233 225 223 221 224 232 229 221 233 235 241 221 256 190 192 204 220 219 231 249 257 269 165 219 228 235 241 247
266 266 266 267 266 264 264 260 256 255 253 246 236 236 240 226 231 219 233 226 241 259 249 254 250 240 238 255 270 282 270 268 266 268 275 295 312 309 322 5 332 320 335 309 297 299 298 296 288 284 279 273 277 286 266 283 264 215 275 237 227 223 227 220 232 230 231 230 246 253 258 215 183 203 202 204 212 208 235 245 276 289 252 265 264 267 268
267 267 266 264 265 264 261 260 257 255 252 250 246 242 243 233 227 216 235 248 235 247 240 238 232 244 249 314 234 231 213 258 269 286 295 300 244 301 12 286 268 295 261 271 292 277 284 274 278 280 286 329 283 291 12 6 324 6 353 354 310 272 246 247 228 227 229 234 237 244 258 274 299 243 213 173 94 247 247 326 5 14 18 11 14 10 15
269 267 266 266 264 262 261 261 260 257 255 252 246 242 248 223 206 214 216 234 241 259 256 252 237 250 237 233 241 237 241 232 205 243 254 266 317 338 335 327 232 129 349 287 258 246 276 281 328 344 291 291 285 310 317 266 258 300 324 287 250 300 295 300 253 254 244 233 242 240 227 23 13 338 301 16 266 8 331 311 351 18 21 12 4 9 3
267 268 267 265 264 264 264 262 259 258 254 249 239 242 251 229 231 233 226 226 246 258 260 253 248 246 237 242 239 236 229 240 239 249 240 258 323 3 274 243 37 48 267 278 280 299 292 299 306 281 256 297 300 319 269 318 306 276 232 268 286 306 275 278 323 343 341 308 262 164 67 322 351 25 357 343 338 323 331 357 340 350 16 8 354 349 354
265 267 266 266 265 262 261 261 261 261 257 254 252 239 246 236 219 223 228 218 226 234 247 287 344 301 278 272 275 251 235 233 229 223 244 264 224 226 243 286 285 250 271 300 282 275 245 265 264 270 281 284 292 260 288 294 276 300 286 165 279 183 159 237 288 305 303 268 288 293 306 336 315 352 292 308 315 308 285 9 351 342 349 354 342 332 341
263 263 266 265 263 261 259 261 260 258 256 251 240 211 243 237 221 225 223 234 240 251 257 263 260 257 244 243 241 242 245 246 252 241 232 240 258 228 237 246 251 222 234 227 259 267 285 280 264 276 282 260 272 288 272 236 269 268 273 235 280 329 311 308 289 259 287 267 257 281 315 315 315 307 304 309 307 290 305 359 337 335 321 327 323 318 313
264 262 262 264 264 261 261 259 259 261 258 252 242 211 220 222 226 208 228 240 242 259 255 228 234 240 224 237 238 229 230 235 231 232 223 216 243 261 250 238 250 261 238 233 212 243 264 264 267 261 261 272 263 256 270 284 268 316 299 296 278 299 318 301 269 312 327 288 313 293 308 307 304 306 308 323 306 347 350 325 322 314 311 304 299 297 305
266 263 261 261 262 262 261 261 259 260 259 257 251 238 244 252 209 196 213 231 231 218 248 246 221 234 237 231 236 224 218 223 217 219 215 212 219 223 235 227 217 227 239 239 212 219 212 255 274 259 270 268 306 281 274 281 282 289 280 289 325 295 314 295 298 291 269 281 291 298 297 279 280 287 307 328 344 336 331 325 314 316 314 313 313 316 306
265 265 262 261 261 262 262 264 265 265 264 261 256 238 214 223 210 192 212 241 258 253 258 250 260 222 203 214 219 223 216 205 207 205 205 208 210 216 233 250 259 249 261 264 246 242 245 256 256 263 264 279 220 263 278 260 291 313 286 281 279 285 306 270 317 289 289 282 278 270 300 318 311 318 345 332 340 342 353 357 349 344 341 336 329 328 320
264 264 264 262 260 260 260 260 261 261 260 259 255 226 230 237 206 200 198 199 223 261 232 247 262 265 210 238 236 230 205 208 216 218 218 216 220 220 223 235 252 255 254 259 239 239 244 243 239 253 241 253 274 274 288 282 276 277 273 284 282 276 266 279 288 280 283 291 318 351 328 314 317 319 0 8 6 0 348 346 346 341 333 327 323 320 319
261 262 263 263 262 260 260 261 261 261 261 261 255 238 211 219 215 208 211 207 209 235 262 272 200 231 15 304 260 246 239 224 218 218 219 225 222 219 215 224 231 243 238 232 252 238 220 236 240 239 254 269 264 257 241 257 267 261 257 264 258 263 267 283 283 286 297 311 322 345 331 312 309 326 2 358 5 353 345 334 330 325 324 331 332 324 320
260 259 260 261 261 262 262 262 261 262 262 262 238 247 241 230 223 212 214 214 218 235 249 262 282 276 262 235 74 316 238 215 218 215 217 219 220 214 218 219 224 229 234 237 244 240 242 239 234 235 229 222 249 262 278 262 247 255 255 260 261 268 279 284 287 288 286 327 18 349 334 307 316 340 344 336 345 346 328 320 319 326 326 325 321 314 308
260 260 258 259 260 261 261 262 263 263 262 252 241 229 245 241 202 205 200 205 197 194 209 240 241 230 184 207 214 201 218 204 207 212 212 221 221 224 221 222 226 225 232 241 234 240 233 242 231 237 243 230 244 258 259 255 260 257 256 263 260 269 273 273 293 313 329 8 325 329 307 299 312 327 315 303 323 324 322 317 323 325 326 323 316 315 312
259 259 260 261 262 264 265 267 267 265 262 221 213 215 224 253 195 184 199 193 187 187 216 227 246 293 294 213 206 218 214 209 217 215 218 216 224 223 222 217 231 226 240 233 232 241 243 247 240 238 237 233 244 254 247 259 263 263 265 267 275 279 293 331 47 75 30 353 335 316 303 303 322 329 334 346 338 333 324 322 326 332 326 320 313 311 312
259 260 262 261 263 265 268 269 268 266 253 213 218 216 207 176 10 178 191 183 156 186 216 239 246 214 240 234 210 210 207 210 212 214 219 202 227 217 227 214 232 210 223 240 247 259 232 233 238 243 240 243 251 261 257 251 261 262 269 269 270 343 30 338 339 15 60 6 354 341 330 323 332 356 305 314 313 315 314 310 314 323 319 309 303 302 302
263 261 261 263 266 268 268 271 270 266 236 245 241 239 250 280 295 155 170 129 156 202 192 222 224 246 229 232 22 311 204 193 229 202 238 195 225 174 227 202 229 250 239 244 222 243 214 223 230 248 241 240 248 251 258 257 259 271 267 275 347 68 329 331 297 46 66 28 24 337 296 297 300 308 304 306 308 309 310 313 320 323 319 314 312 314 316
257 260 265 270 272 273 273 274 277 278 273 263 265 228 220 200 210 199 163 155 161 206 200 208 231 225 233 57 31 251 156 198 207 178 227 199 190 191 223 216 219 219 200 215 228 239 261 261 235 249 275 249 230 259 257 256 257 262 279 51 35 338 304 290 305 70 15 356 297 261 264 277 285 292 302 295 290 298 306 310 319 315 303 300 301 306 307
260 265 269 273 272 276 281 286 301 259 220 228 238 223 189 201 193 184 186 165 141 223 204 229 192 231 238 207 184 248 175 193 221 197 206 227 162 203 184 204 236 221 248 161 251 240 253 241 241 261 241 237 239 249 248 256 267 327 35 343 7 340 343 345 301 47 310 312 303 281 266 259 279 303 301 302 302 296 309 306 307 306 299 299 297 292 302
263 268 273 277 290 296 294 273 175 215 220 225 228 186 189 199 204 192 193 209 193 194 210 205 182 218 209 235 226 264 89 248 228 248 214 207 236 190 178 164 239 230 201 210 229 210 230 218 205 247 215 228 235 234 255 232 237 156 64 28 1 35 320 280 296 311 311 304 299 284 268 270 283 283 287 284 288 305 309 303 304 301 293 296 298 304 308
265 273 285 310 322 169 233 237 218 195 225 166 150 141 170 151 31 149 197 235 296 280 209 190 203 210 188 231 161 237 129 241 187 209 218 202 214 203 162 196 229 244 241 235 216 219 237 218 234 250 243 242 252 249 84 110 117 111 83 50 355 321 321 303 305 305 308 309 297 258 292 297 288 269 267 286 297 304 309 310 314 319 314 311 310 310 305
262 278 81 131 154 229 248 223 195 193 184 127 120 107 207 174 177 182 181 205 182 152 239 188 235 227 191 173 233 195 142 240 159 193 237 185 179 242 157 202 212 207 233 217 226 201 244 208 216 229 244 232 45 120 122 98 68 86 82 11 356 321 312 308 307 314 322 326 330 337 334 324 317 305 283 301 309 310 303 300 302 304 299 297 300 301 303
255 185 146 194 183 223 208 303 158 154 128 88 272 104 173 179 160 209 217 188 174 195 171 179 223 211 212 221 246 188 183 183 230 213 233 263 111 297 86 205 252 146 272 290 271 142 242 222 230 237 248 237 196 197 117 98 75 67 74 350 342 311 310 307 305 293 288 273 277 294 295 299 303 307 312 314 306 296 288 295 304 306 304 299 298 299 294
119 179 197 188 211 206 103 216 164 120 148 145 259 138 187 192 157 229 136 181 211 222 129 211 206 207 193 211 212 250 117 191 240 241 213 267 169 179 252 150 259 105 235 198 240 141 157 228 208 214 251 239 237 97 93 63 32 44 10 349 318 316 310 305 304 295 287 287 286 286 288 283 287 287 294 298 303 304 306 306 298 294 300 299 299 298 295
190 190 197 209 187 130 172 81 78 152 148 171 145 262 143 274 203 185 128 218 183 228 170 195 146 182 207 199 199 237 4 30 354 12 150 204 251 95 218 230 255 77 242 247 263 129 240 231 231 220 242 251 84 79 48 20 14 345 344 319 317 304 305 305 294 300 298 291 288 286 283 283 283 283 283 286 288 289 291 294 299 302 302 298 300 299 298
196 172 151 107 104 81 43 39 146 150 215 188 164 211 178 194 53 356 196 173 209 189 248 153 213 179 210 169 181 125 283 159 155 209 184 280 233 165 224 189 81 148 234 228 147 244 157 243 223 241 206 80 88 60 30 13 341 338 318 321 310 312 307 302 300 292 290 290 291 291 289 285 283 282 284 287 288 288 289 294 294 295 293 294 296 296 297
144 119 119 105 100 130 121 206 205 151 202 197 123 242 145 143 180 160 216 194 274 101 245 84 201 96 346 70 3 153 166 159 179 222 137 226 330 56 301 256 174 239 240 256 189 259 223 239 242 249 95 95 70 34 29 321 328 303 304 309 305 304 303 298 296 298 295 292 291 289 291 288 283 280 282 283 285 285 283 281 285 292 297 299 296 295 295
143 143 132 148 134 236 145 221 153 109 212 182 154 198 176 156 240 148 171 220 142 234 215 135 215 122 171 192 144 148 88 232 172 48 326 242 130 230 96 226 223 245 81 318 239 230 235 234 229 77 120 56 59 6 340 335 325 309 308 300 301 298 301 298 298 296 297 289 283 285 286 285 286 288 286 281 279 282 288 289 288 290 293 297 293 293 292
130 160 127 139 188 218 123 234 93 156 196 198 178 208 171 198 209 189 195 329 30 349 360 38 48 96 145 199 65 306 155 190 28 103 223 142 32 258 166 247 223 352 138 232 238 265 278 252 85 21 46 332 345 340 332 324 315 321 311 311 306 306 306 306 303 301 298 301 298 300 294 295 296 294 292 286 282 280 287 293 299 297 293 292 292 293 293
177 162 135 170 203 208 162 221 116 234 270 178 199 195 202 294 77 61 333 280 8 41 49 10 347 42 165 221 121 209 135 158 144 216 181 111 145 241 219 258 64 56 266 196 234 230 237 226 93 47 359 329 324 315 320 301 311 305 318 314 317 316 313 308 306 304 302 304 304 301 299 301 299 299 295 290 291 292 289 288 290 291 294 294 295 295 295
124 82 58 188 163 238 113 193 205 194 163 77 42 19 83 111 108 90 29 348 357 314 323 249 217 218 161 219 141 317 142 117 159 243 84 122 200 249 326 104 245 185 210 242 239 242 246 95 300 7 338 328 319 314 304 311 306 309 305 300 305 307 310 308 306 305 305 305 302 303 302 302 300 296 294 295 294 292 291 292 291 293 295 294 299 306 307
161 142 119 169 206 145 183 216 111 80 39 84 118 112 122 154 109 77 349 313 280 272 280 272 353 257 258 278 108 205 193 178 79 266 165 219 16 67 254 220 221 230 210 230 243 138 69 16 336 324 324 321 310 314 315 312 314 308 305 306 306 307 309 308 307 305 308 309 308 306 303 301 299 298 298 297 297 297 296 296 299 300 295 293 300 303 299
132 137 154 211 203 143 48 79 126 98 53 50 56 38 34 68 86 6 290 276 337 10 307 78 348 50 278 124 151 176 237 172 125 242 127 203 175 219 190 230 220 250 243 217 55 97 336 344 318 320 310 310 311 308 307 310 310 312 312 310 309 307 306 303 303 305 308 306 304 303 303 301 298 296 296 298 300 301 304 302 298 294 297 302 305 301 308
126 138 124 128 97 52 115 39 67 89 129 124 95 63 53 86 79 4 356 359 355 342 309 212 210 121 274 67 273 160 235 176 185 256 88 232 208 248 254 259 227 233 245 61 333 337 322 319 322 312 313 313 310 313 310 311 309 306 306 304 301 302 301 304 306 308 306 304 303 301 299 298 298 301 304 305 303 301 300 300 303 308 309 307 305 307 323
55 77 54 11 37 327 48 57 165 128 117 91 64 30 13 29 49 13 6 341 318 304 161 166 148 154 240 205 192 268 257 73 52 224 197 232 191 222 219 248 256 59 289 308 314 312 319 316 317 317 312 309 308 307 307 306 306 304 304 304 302 301 303 305 304 304 303 302 300 300 300 299 301 302 301 299 299 302 303 306 310 309 312 312 309 317 317
92 94 80 38 38 31 37 118 78 65 46 59 58 23 31 59 32 345 330 332 308 122 296 50 77 215 182 223 236 250 16 67 223 161 217 271 45 249 266 177 40 274 318 320 308 305 302 306 304 301 301 304 309 312 308 304 304 306 307 307 308 309 308 308 306 304 303 302 301 299 299 302 304 304 302 302 304 307 311 314 318 318 318 318 319 319 323